• In Österreich
  • Länderverzeichnis
  • Für 7 Tage
  • Wassertemperatur
  • Satellitenkarten
  • Wetterkarte
  • News
  • Widgets
  • user-avatar
    Anmelden

    Stündliche Wetter Rawson

    Heute, 18 Dezember, Montag

    Zeit Temperatur Niederschläge Wind Luftdruck Luftfeuchtigkeit
    00:00 +19°C° 0 mm 9 m/S 758 mmHg 22%
    01:00 +20°C° 0 mm 7 m/S 759 mmHg 22%
    02:00 +20°C° 0 mm 6 m/S 759 mmHg 22%
    03:00 +19°C° 0 mm 6 m/S 759 mmHg 25%
    04:00 +17°C° 0 mm 6 m/S 759 mmHg 28%
    05:00 +16°C° 0 mm 5 m/S 759 mmHg 31%
    06:00 +17°C° 0 mm 5 m/S 759 mmHg 29%
    07:00 +19°C° 0 mm 5 m/S 759 mmHg 27%
    08:00 +20°C° 0 mm 5 m/S 759 mmHg 25%
    09:00 +22°C° 0 mm 4 m/S 759 mmHg 23%
    10:00 +24°C° 0 mm 3 m/S 759 mmHg 21%
    11:00 +25°C° 0 mm 3 m/S 759 mmHg 20%
    12:00 +26°C° 0 mm 3 m/S 759 mmHg 18%
    13:00 +27°C° 0 mm 4 m/S 758 mmHg 17%
    14:00 +29°C° 0 mm 5 m/S 758 mmHg 15%
    15:00 +29°C° 0 mm 6 m/S 757 mmHg 15%
    16:00 +29°C° 0 mm 6 m/S 757 mmHg 14%
    17:00 +30°C° 0 mm 7 m/S 757 mmHg 14%
    18:00 +29°C° 0 mm 7 m/S 757 mmHg 15%
    19:00 +28°C° 0 mm 7 m/S 757 mmHg 15%
    20:00 +27°C° 0 mm 7 m/S 757 mmHg 16%
    21:00 +26°C° 0 mm 7 m/S 757 mmHg 19%
    22:00 +24°C° 0 mm 7 m/S 757 mmHg 22%
    23:00 +23°C° 0 mm 7 m/S 758 mmHg 26%

    Morgen, 19 Dezember, Dienstag

    Zeit Temperatur Niederschläge Wind Luftdruck Luftfeuchtigkeit
    00:00 +22°C° 0 mm 6 m/S 758 mmHg 29%
    01:00 +22°C° 0 mm 5 m/S 757 mmHg 33%
    02:00 +21°C° 0 mm 4 m/S 757 mmHg 36%
    03:00 +21°C° 0 mm 3 m/S 757 mmHg 37%
    04:00 +21°C° 0 mm 3 m/S 757 mmHg 37%
    05:00 +20°C° 0 mm 2 m/S 757 mmHg 37%
    06:00 +22°C° 0 mm 3 m/S 758 mmHg 33%
    07:00 +23°C° 0 mm 4 m/S 758 mmHg 28%
    08:00 +26°C° 0 mm 5 m/S 758 mmHg 23%
    09:00 +27°C° 0 mm 4 m/S 758 mmHg 22%
    10:00 +28°C° 0 mm 4 m/S 758 mmHg 21%
    11:00 +28°C° 0 mm 3 m/S 758 mmHg 20%
    12:00 +30°C° 0 mm 4 m/S 757 mmHg 19%
    13:00 +32°C° 0 mm 4 m/S 756 mmHg 18%
    14:00 +33°C° 0 mm 5 m/S 756 mmHg 17%
    15:00 +33°C° 0 mm 6 m/S 755 mmHg 18%
    16:00 +34°C° 0 mm 7 m/S 754 mmHg 18%
    17:00 +34°C° 0 mm 7 m/S 753 mmHg 19%
    18:00 +33°C° 0 mm 8 m/S 753 mmHg 22%
    19:00 +31°C° 0 mm 8 m/S 752 mmHg 25%
    20:00 +29°C° 0 mm 8 m/S 752 mmHg 28%
    21:00 +29°C° 0,3 mm 8 m/S 751 mmHg 30%
    22:00 +29°C° 0,3 mm 8 m/S 751 mmHg 32%
    23:00 +28°C° 0,3 mm 7 m/S 751 mmHg 33%

    übermorgen, 20 Dezember, Mittwoch

    Zeit Temperatur Niederschläge Wind Luftdruck Luftfeuchtigkeit
    00:00 +28°C° 0 mm 7 m/S 751 mmHg 34%
    01:00 +27°C° 0 mm 6 m/S 750 mmHg 35%
    02:00 +27°C° 0 mm 6 m/S 750 mmHg 36%
    03:00 +26°C° 0 mm 5 m/S 750 mmHg 36%
    04:00 +26°C° 0 mm 5 m/S 749 mmHg 36%
    05:00 +25°C° 0 mm 4 m/S 749 mmHg 35%
    06:00 +27°C° 0 mm 4 m/S 749 mmHg 31%
    07:00 +28°C° 0 mm 4 m/S 749 mmHg 27%
    08:00 +30°C° 0 mm 3 m/S 749 mmHg 23%
    09:00 +32°C° 0 mm 4 m/S 749 mmHg 21%
    10:00 +34°C° 0 mm 5 m/S 748 mmHg 18%
    11:00 +35°C° 0 mm 7 m/S 748 mmHg 16%
    12:00 +35°C° 0 mm 7 m/S 747 mmHg 17%
    13:00 +35°C° 0 mm 8 m/S 747 mmHg 17%
    14:00 +37°C° 0 mm 9 m/S 747 mmHg 18%
    15:00 +34°C° 0,1 mm 10 m/S 747 mmHg 21%
    16:00 +32°C° 0,1 mm 11 m/S 748 mmHg 23%
    17:00 +29°C° 0,1 mm 12 m/S 748 mmHg 26%
    18:00 +28°C° 0 mm 11 m/S 749 mmHg 23%
    19:00 +28°C° 0 mm 10 m/S 750 mmHg 19%
    20:00 +27°C° 0 mm 8 m/S 751 mmHg 16%
    21:00 +24°C° 0 mm 10 m/S 752 mmHg 17%
    22:00 +22°C° 0 mm 11 m/S 753 mmHg 18%
    23:00 +21°C° 0 mm 12 m/S 754 mmHg 19%

    21 Dezember, Donnerstag

    Zeit Temperatur Niederschläge Wind Luftdruck Luftfeuchtigkeit
    00:00 +18°C° 0 mm 11 m/S 755 mmHg 21%
    01:00 +17°C° 0 mm 10 m/S 755 mmHg 23%
    02:00 +16°C° 0 mm 10 m/S 756 mmHg 24%
    03:00 +15°C° 0 mm 9 m/S 756 mmHg 26%
    04:00 +15°C° 0 mm 8 m/S 757 mmHg 27%
    05:00 +14°C° 0 mm 7 m/S 757 mmHg 29%
    06:00 +15°C° 0 mm 7 m/S 757 mmHg 27%
    07:00 +16°C° 0 mm 8 m/S 757 mmHg 26%
    08:00 +17°C° 0 mm 8 m/S 757 mmHg 25%
    09:00 +18°C° 0 mm 7 m/S 757 mmHg 22%
    10:00 +21°C° 0 mm 7 m/S 756 mmHg 20%
    11:00 +22°C° 0 mm 6 m/S 756 mmHg 17%
    12:00 +23°C° 0 mm 6 m/S 755 mmHg 17%
    13:00 +24°C° 0 mm 6 m/S 754 mmHg 16%
    14:00 +26°C° 0 mm 6 m/S 754 mmHg 16%
    15:00 +24°C° 0 mm 7 m/S 753 mmHg 18%
    16:00 +24°C° 0 mm 8 m/S 752 mmHg 20%
    17:00 +24°C° 0 mm 10 m/S 751 mmHg 22%
    18:00 +22°C° 0 mm 10 m/S 751 mmHg 26%
    19:00 +21°C° 0 mm 11 m/S 751 mmHg 31%
    20:00 +19°C° 0 mm 11 m/S 750 mmHg 36%
    21:00 +19°C° 0 mm 10 m/S 751 mmHg 36%
    22:00 +19°C° 0 mm 9 m/S 751 mmHg 37%
    23:00 +21°C° 0 mm 8 m/S 751 mmHg 37%

    22 Dezember, Freitag

    Zeit Temperatur Niederschläge Wind Luftdruck Luftfeuchtigkeit
    00:00 +20°C° 0 mm 8 m/S 751 mmHg 36%
    01:00 +18°C° 0 mm 7 m/S 751 mmHg 36%
    02:00 +19°C° 0 mm 6 m/S 751 mmHg 35%
    03:00 +17°C° 0 mm 7 m/S 751 mmHg 36%
    04:00 +16°C° 0 mm 7 m/S 752 mmHg 37%
    05:00 +15°C° 0 mm 8 m/S 752 mmHg 37%
    06:00 +16°C° 0 mm 9 m/S 752 mmHg 33%
    07:00 +16°C° 0 mm 10 m/S 753 mmHg 29%
    08:00 +17°C° 0 mm 11 m/S 753 mmHg 25%
    09:00 +17°C° 0 mm 10 m/S 753 mmHg 24%
    10:00 +17°C° 0 mm 10 m/S 753 mmHg 22%
    11:00 +18°C° 0 mm 10 m/S 753 mmHg 21%
    12:00 +18°C° 0 mm 11 m/S 753 mmHg 19%
    13:00 +18°C° 0 mm 11 m/S 753 mmHg 18%
    14:00 +18°C° 0 mm 12 m/S 753 mmHg 17%
    15:00 +18°C° 0 mm 12 m/S 754 mmHg 17%
    16:00 +18°C° 0 mm 11 m/S 754 mmHg 17%
    17:00 +18°C° 0 mm 11 m/S 754 mmHg 17%
    18:00 +18°C° 0 mm 10 m/S 754 mmHg 18%
    19:00 +17°C° 0 mm 9 m/S 755 mmHg 19%
    20:00 +17°C° 0 mm 9 m/S 755 mmHg 20%
    21:00 +16°C° 0 mm 9 m/S 756 mmHg 22%
    22:00 +16°C° 0 mm 10 m/S 756 mmHg 24%
    23:00 +14°C° 0 mm 11 m/S 757 mmHg 25%

    23 Dezember, Samstag

    Zeit Temperatur Niederschläge Wind Luftdruck Luftfeuchtigkeit
    00:00 +13°C° 0 mm 10 m/S 757 mmHg 27%
    01:00 +13°C° 0 mm 10 m/S 757 mmHg 29%
    02:00 +12°C° 0 mm 10 m/S 758 mmHg 31%
    03:00 +12°C° 0 mm 10 m/S 758 mmHg 33%
    04:00 +11°C° 0 mm 9 m/S 759 mmHg 35%
    05:00 +11°C° 0 mm 9 m/S 759 mmHg 37%
    06:00 +11°C° 0 mm 8 m/S 760 mmHg 35%
    07:00 +12°C° 0 mm 8 m/S 760 mmHg 34%
    08:00 +14°C° 0 mm 7 m/S 760 mmHg 32%
    09:00 +16°C° 0 mm 7 m/S 760 mmHg 29%
    10:00 +17°C° 0 mm 6 m/S 760 mmHg 26%
    11:00 +19°C° 0 mm 6 m/S 760 mmHg 23%
    12:00 +20°C° 0 mm 5 m/S 759 mmHg 22%
    13:00 +22°C° 0 mm 5 m/S 758 mmHg 20%
    14:00 +23°C° 0 mm 5 m/S 758 mmHg 19%
    15:00 +23°C° 0 mm 5 m/S 757 mmHg 18%
    16:00 +24°C° 0 mm 6 m/S 756 mmHg 18%
    17:00 +24°C° 0 mm 6 m/S 756 mmHg 17%
    18:00 +24°C° 0 mm 6 m/S 755 mmHg 18%
    19:00 +24°C° 0 mm 6 m/S 755 mmHg 19%
    20:00 +23°C° 0 mm 5 m/S 755 mmHg 19%
    21:00 +22°C° 0 mm 6 m/S 755 mmHg 21%
    22:00 +21°C° 0 mm 6 m/S 755 mmHg 23%
    23:00 +21°C° 0 mm 7 m/S 755 mmHg 24%
    Mehr zeigen